Location: 11564-11574
(39.3210°N, 76.9125°W)
Time: 23:41:19
(UTC-05:00)

Hubble Space Telescope - Visible Passes

Search period start: 18 November 2019 00:00
Search period end: 28 November 2019 00:00
Orbit: 536 x 540 km, 28.5° (Epoch: 17 November)

Date Brightness Start Highest point End Pass type
(mag) Time Alt. Az. Time Alt. Az. Time Alt. Az.
19 Nov 3.6 19:29:41 10° SW 19:30:01 11° SSW 19:30:01 11° SSW visible
20 Nov 3.3 17:40:00 10° S 17:41:13 11° SSE 17:42:27 10° SSE visible
20 Nov 3.3 19:18:53 10° SW 19:20:03 14° SSW 19:20:03 14° SSW visible
21 Nov 3.2 17:28:38 10° SSW 17:30:30 13° SSE 17:32:22 10° SE visible
21 Nov 3.1 19:08:09 10° SW 19:10:04 17° SSW 19:10:04 17° SSW visible
22 Nov 3.2 17:17:33 10° SSW 17:19:47 14° SSE 17:22:02 10° SE visible
22 Nov 2.9 18:57:28 10° SW 19:00:06 18° S 19:00:06 18° S visible
23 Nov 2.9 18:46:49 10° SW 18:49:36 17° S 18:50:10 17° S visible
24 Nov 3.0 18:36:13 10° SW 18:38:53 17° S 18:40:16 14° SSE visible
25 Nov 3.2 18:25:42 10° SW 18:28:11 16° S 18:30:27 11° SSE visible
26 Nov 3.3 18:15:14 10° SW 18:17:29 14° SSW 18:19:43 10° SSE visible
27 Nov 3.4 18:04:54 10° SW 18:06:45 13° SSW 18:08:36 10° SSE visible
